TimeCST,TemperatureF,Dew PointF,Humidity,Sea Level PressureIn,VisibilityMPH,Wind Direction,Wind SpeedMPH,Gust SpeedMPH,PrecipitationIn,Events,Conditions,WindDirDegrees,DateUTC
12:53 AM,30.0,21.9,72,29.98,10.0,SSW,4.6,-,N/A,,Clear,210,2013-02-13 06:53:00
1:53 AM,30.9,21.9,69,29.96,10.0,WSW,6.9,-,N/A,,Clear,250,2013-02-13 07:53:00
2:53 AM,30.0,21.9,72,29.95,10.0,West,4.6,-,N/A,,Clear,260,2013-02-13 08:53:00
3:53 AM,27.0,21.9,81,29.94,10.0,West,5.8,-,N/A,,Clear,280,2013-02-13 09:53:00
4:53 AM,28.0,21.9,78,29.94,10.0,West,5.8,-,N/A,,Clear,280,2013-02-13 10:53:00
5:53 AM,28.0,21.9,78,29.94,10.0,West,9.2,-,N/A,,Clear,270,2013-02-13 11:53:00
6:53 AM,26.1,21.0,81,29.94,10.0,West,4.6,-,N/A,,Clear,270,2013-02-13 12:53:00
7:53 AM,28.0,21.9,78,29.94,10.0,West,5.8,-,N/A,,Clear,270,2013-02-13 13:53:00
8:53 AM,33.1,24.1,70,29.94,10.0,West,5.8,-,N/A,,Clear,270,2013-02-13 14:53:00
9:53 AM,37.0,25.0,62,29.94,10.0,West,9.2,-,N/A,,Clear,270,2013-02-13 15:53:00
10:53 AM,42.1,25.0,51,29.94,10.0,West,10.4,-,N/A,,Clear,270,2013-02-13 16:53:00
11:53 AM,48.9,26.1,41,29.93,10.0,WSW,11.5,-,N/A,,Clear,250,2013-02-13 17:53:00
12:53 PM,53.1,25.0,34,29.88,10.0,West,9.2,17.3,N/A,,Clear,260,2013-02-13 18:53:00
1:53 PM,57.0,23.0,27,29.85,10.0,West,11.5,-,N/A,,Clear,270,2013-02-13 19:53:00
2:53 PM,57.0,24.1,28,29.83,10.0,West,12.7,21.9,N/A,,Clear,270,2013-02-13 20:53:00
3:53 PM,55.9,24.1,29,29.83,10.0,West,17.3,26.5,N/A,,Clear,270,2013-02-13 21:53:00
4:53 PM,55.0,23.0,29,29.83,10.0,West,12.7,-,N/A,,Clear,270,2013-02-13 22:53:00
5:53 PM,51.1,24.1,35,29.84,10.0,West,6.9,-,N/A,,Clear,270,2013-02-13 23:53:00
6:53 PM,48.9,23.0,36,29.84,10.0,WSW,5.8,-,N/A,,Clear,240,2013-02-14 00:53:00
7:53 PM,46.9,21.9,37,29.85,10.0,SW,5.8,-,N/A,,Clear,220,2013-02-14 01:53:00
8:53 PM,45.0,21.9,40,29.84,10.0,SW,4.6,-,N/A,,Clear,230,2013-02-14 02:53:00
9:53 PM,36.0,25.0,64,29.85,10.0,Calm,Calm,-,N/A,,Clear,0,2013-02-14 03:53:00
10:53 PM,34.0,25.0,70,29.86,10.0,Calm,Calm,-,N/A,,Clear,0,2013-02-14 04:53:00
11:53 PM,32.0,24.1,73,29.86,10.0,Calm,Calm,-,N/A,,Clear,0,2013-02-14 05:53:00